GFSFLT2_con_sbcape_015.txt.gz
CAPE
1323 1438 1271 1084 1051 962 787 781 772 729 655 595 450 212 77 112 116 47 0 67 114 85 60 68 27 49 10 0 0 0 0 0
1212 1215 1132 1198 1209 767 712 646 601 597 533 393 166 50 8 32 0 82 161 170 143 173 211 223 173 79 41 11 0 0 0 0
892 794 776 1079 979 744 533 538 492 466 443 215 48 85 125 112 42 70 178 170 260 311 288 258 197 21 0 9 0 0 0 0
776 762 719 942 657 617 523 369 336 337 383 478 256 255 272 228 150 30 30 69 71 19 38 35 6 34 0 0 0 0 0 0
622 599 685 692 547 517 297 259 234 313 463 467 450 461 484 407 395 104 52 0 0 0 7 2 0 0 0 0 0 0 0 0
828 780 530 391 324 340 145 186 263 374 501 509 577 580 318 132 15 3 0 0 0 0 0 0 0 0 0 0 0 0 0 0
641 326 239 177 165 174 154 281 385 474 599 660 511 335 102 26 2 0 0 0 0 0 0 0 0 0 0 0 0 0 0 0
311 229 70 39 94 158 216 268 258 249 202 152 176 108 49 1 0 0 0 0 0 0 0 0 0 0 0 0 0 0 0 0
332 52 16 53 92 3 11 1 1 2 6 0 0 0 0 0 0 0 0 0 0 0 0 0 0 0 0 0 0 0 0 0
360 90 27 0 0 0 0 0 0 0 0 0 0 0 0 0 0 0 0 0 0 0 0 0 0 0 0 0 0 0 0 0
311 209 18 0 0 0 0 0 0 0 0 0 0 0 0 0 0 0 0 0 0 0 0 0 0 0 0 0 0 0 0 0
118 2 0 0 0 0 0 0 0 0 0 0 0 0 0 0 0 0 0 0 0 0 0 0 0 0 0 0 0 0 0 0
0 0 0 0 0 0 0 0 0 0 0 0 0 0 0 0 0 0 0 0 0 0 0 0 0 0 0 0 0 0 0 0
0 0 0 0 0 0 0 0 0 0 0 0 0 0 0 0 0 0 0 0 0 0 0 0 0 0 0 0 0 0 0 0
0 0 0 0 0 0 0 0 0 0 0 0 0 0 0 0 0 0 0 0 0 0 0 0 0 0 0 0 0 0 2 0
0 0 0 0 0 0 0 0 0 0 0 0 0 0 0 0 0 0 0 0 0 0 0 0 0 0 0 1 0 5 3 0
0 0 0 0 0 0 0 0 0 0 0 0 0 0 0 0 0 0 0 0 0 0 0 0 0 0 0 0 0 0 2 28
0 0 0 0 0 0 0 0 0 0 0 0 0 0 0 0 0 0 0 0 0 0 0 0 0 0 0 0 0 0 0 14
0 0 0 0 0 0 0 0 0 0 0 0 0 0 0 0 0 0 0 0 0 0 0 0 0 0 0 0 0 2 16 27
0 0 0 0 0 0 0 0 0 0 0 0 0 0 0 0 0 0 0 0 0 0 0 0 0 0 0 7 10 17 44 60

GFSFLT2_con_sbcape_018.txt.gz
CAPE
1129 889 944 1194 1073 869 737 812 772 739 683 592 359 181 210 129 50 0 0 12 15 46 62 111 124 58 1 0 0 0 0 0
1249 1340 1268 1232 1176 753 647 670 591 572 559 354 163 65 79 55 55 158 136 122 143 147 160 186 182 103 9 9 0 0 0 0
1248 1015 1076 1054 931 921 539 545 520 424 362 164 63 153 215 141 52 110 165 158 186 133 146 143 97 112 0 0 1 0 0 0
854 998 981 1212 658 619 379 140 71 300 361 438 373 559 509 339 166 16 23 6 0 0 3 5 26 0 0 0 0 0 0 0
816 897 922 832 544 341 74 128 352 652 771 775 852 847 838 427 182 102 114 0 16 1 0 0 0 0 0 0 0 0 0 0
709 810 1015 739 350 124 186 247 582 764 953 1113 1159 1027 795 378 108 137 135 57 6 0 0 0 0 0 0 0 0 0 0 0
934 801 729 583 371 347 451 704 773 1066 1084 1191 1161 949 782 281 262 109 22 1 0 0 0 0 0 0 0 0 0 0 0 0
864 585 486 364 533 663 814 852 760 834 983 913 383 420 654 434 166 8 0 2 0 0 0 0 0 0 0 0 0 0 0 0
810 693 522 643 359 62 3 7 104 264 270 33 3 30 35 2 0 0 0 0 0 0 0 0 0 0 0 0 0 0 0 0
975 715 678 113 2 0 0 0 0 31 29 12 0 0 0 0 1 0 0 0 0 0 0 0 0 0 0 0 0 0 0 0
1081 942 604 365 0 0 0 0 0 0 0 0 0 0 0 0 0 0 0 0 0 0 0 0 0 0 0 0 0 0 0 0
1181 745 524 142 0 0 0 0 0 0 0 0 0 0 0 0 0 0 0 0 0 0 0 0 0 1 0 0 0 0 0 2
1009 549 393 275 129 24 0 3 0 0 0 0 0 0 0 0 0 0 0 0 0 0 0 0 0 1 0 0 0 0 10 11
867 640 355 121 51 46 43 13 0 0 0 0 0 0 0 0 0 0 0 0 0 0 0 0 1 19 29 7 0 0 0 17
654 277 36 12 3 0 0 0 0 0 0 0 0 0 0 0 0 0 0 0 0 1 0 1 2 7 10 8 5 1 0 0
0 0 0 0 0 0 0 0 0 0 0 0 0 0 0 0 0 0 0 0 1 6 1 0 0 0 0 0 1 2 6 4
0 0 0 0 0 0 0 0 0 0 0 0 0 0 0 0 0 0 0 3 5 0 0 0 1 10 8 1 0 0 1 8
0 0 0 0 0 0 0 0 0 0 0 0 0 0 0 0 2 9 12 11 9 0 0 4 9 1 0 0 2 2 5 9
0 0 0 0 0 0 0 0 0 0 0 0 0 0 0 0 0 0 15 24 6 1 7 34 2 2 6 4 5 10 12 25
0 0 0 0 0 0 0 0 0 0 0 0 0 0 0 0 0 3 23 20 8 4 60 50 25 16 11 16 14 26 30 44

GFSFLT2_con_sbcape_021.txt.gz
CAPE
812 620 585 727 808 714 707 742 740 706 621 435 155 136 117 64 43 38 34 48 70 98 122 152 169 97 19 18 13 40 0 0
1124 1076 918 1089 959 605 646 612 599 610 366 287 135 116 50 52 123 170 205 140 273 286 243 226 197 121 0 0 24 61 0 0
1113 913 910 930 928 751 582 627 566 468 190 124 16 99 171 83 86 113 130 118 106 29 77 138 181 204 30 0 0 0 0 0
845 1042 890 843 545 546 207 35 5 261 238 144 323 324 468 242 139 106 63 0 31 0 33 130 110 0 0 3 0 0 0 0
972 1148 1165 591 437 220 36 56 404 631 669 639 708 474 553 478 290 214 290 17 197 83 61 42 8 0 0 0 0 0 0 0
954 970 1023 529 238 89 92 329 574 539 703 864 894 1042 718 409 266 258 265 178 113 88 89 22 0 0 0 0 0 0 0 0
800 756 593 450 238 419 632 588 1085 1160 1047 1277 1242 987 1056 1003 960 582 300 151 109 75 44 1 0 0 0 0 0 0 0 0
565 461 376 279 602 833 931 747 694 875 1012 861 663 747 284 116 398 534 141 112 49 9 0 0 0 0 0 0 0 0 0 0
589 566 470 785 827 192 20 24 63 335 562 498 243 215 376 456 213 117 38 0 0 0 0 0 0 0 0 0 0 0 0 0
820 566 827 639 174 14 1 5 16 115 136 110 49 62 0 18 25 4 1 0 0 0 0 0 0 0 0 0 0 0 0 1
1221 983 905 451 237 0 0 15 26 5 0 0 0 0 0 1 0 0 0 0 0 0 0 0 1 1 0 0 1 0 1 0
1428 1219 752 622 228 90 110 109 89 10 1 0 0 0 0 0 0 0 0 0 0 0 0 0 0 3 0 0 1 0 0 0
1207 820 755 461 613 598 423 19 5 1 0 0 0 0 0 0 0 0 0 0 0 1 5 3 0 0 0 3 1 3 16 1
1198 940 810 787 670 345 102 144 14 0 0 0 0 0 0 0 0 0 0 0 0 0 0 0 0 1 3 11 1 0 0 0
953 851 769 437 256 66 27 0 0 0 0 0 0 0 0 0 0 0 0 0 0 0 2 6 1 1 2 7 4 2 4 2
838 501 212 45 2 0 0 12 40 0 0 0 0 0 0 0 0 0 0 0 0 2 1 8 5 8 16 12 26 32 21 5
100 5 0 0 0 0 0 0 0 0 0 0 0 0 0 0 0 0 2 3 4 12 21 20 20 38 32 34 13 6 6 13
0 0 0 0 0 0 0 0 0 0 0 0 0 0 0 0 0 0 0 2 12 23 35 26 43 46 20 24 25 19 19 25
0 0 0 0 0 0 0 0 0 0 0 0 0 0 0 0 0 0 0 0 12 21 24 29 69 43 29 40 32 40 44 38
0 0 0 0 0 0 0 0 0 0 0 0 0 0 0 0 0 0 1 9 20 33 22 73 62 54 50 53 57 58 60 58

GFSFLT2_con_sbcape_024.txt.gz
CAPE
291 373 602 626 622 544 534 530 519 539 390 285 296 299 250 269 303 293 268 278 267 269 258 267 260 177 48 0 0 4 0 1
296 478 771 596 480 417 418 432 448 420 306 165 143 152 165 235 310 289 219 172 219 174 160 151 189 139 95 33 0 0 0 0
330 488 761 639 494 423 438 452 401 304 132 67 12 34 58 131 161 140 72 45 70 0 0 55 171 187 179 151 42 0 0 0
487 653 748 709 417 251 130 71 46 43 0 0 64 596 44 84 164 112 148 42 66 25 66 111 156 0 0 14 0 0 0 0
861 798 850 398 309 367 80 20 479 719 709 775 829 674 449 296 376 27 155 53 193 31 106 37 28 3 0 0 0 0 0 0
844 846 990 455 224 166 205 416 733 699 859 936 1075 868 570 644 590 422 236 75 135 119 84 76 0 0 0 0 0 0 0 0
840 874 680 483 502 678 835 872 1083 1111 1253 1224 1060 970 723 440 453 97 246 87 20 4 0 0 0 0 0 0 0 0 0 0
653 605 542 562 735 827 508 373 472 745 785 665 443 446 97 58 185 71 52 2 0 0 0 0 0 0 0 0 0 0 0 0
538 491 408 919 534 164 47 31 91 525 495 562 331 135 175 24 51 41 3 0 0 0 0 0 0 0 0 0 0 0 0 0
464 384 890 689 225 25 9 7 51 120 65 90 68 65 4 4 19 4 0 0 0 0 0 0 0 0 0 0 0 0 0 0
638 875 753 239 202 97 8 60 33 23 0 3 1 0 0 0 0 0 0 0 0 0 0 0 0 0 0 0 0 0 0 0
900 989 466 397 148 15 117 203 146 3 8 0 0 0 0 0 0 0 0 0 0 0 0 0 0 0 0 0 0 0 0 0
1187 654 447 485 228 190 267 178 14 3 0 0 0 0 0 0 0 0 0 0 0 0 0 0 0 0 0 0 0 0 0 0
902 772 558 498 458 396 187 5 1 0 0 0 0 0 0 0 0 0 0 0 0 0 0 0 0 0 0 0 0 0 0 0
968 776 712 735 541 163 5 0 0 0 0 0 0 0 0 0 0 0 0 0 0 0 0 0 0 0 0 0 0 0 0 0
964 764 738 311 138 5 0 0 0 0 0 0 0 0 0 0 0 0 0 0 0 0 0 0 0 0 0 0 0 0 0 0
906 491 63 0 0 0 0 0 0 0 0 0 0 0 0 0 0 0 0 0 0 0 0 0 0 0 2 0 0 0 0 0
133 0 0 0 0 0 0 0 0 0 0 0 0 0 0 0 0 0 0 0 0 0 6 7 5 2 9 0 0 0 0 0
0 0 0 0 0 0 0 0 0 0 0 0 0 0 0 0 0 0 0 0 0 2 0 0 5 2 2 0 0 0 0 4
0 0 0 0 0 0 0 0 0 0 0 0 0 0 0 0 0 0 0 0 0 4 0 3 3 6 0 0 1 2 0 3

GFSFLT2_con_sbcape_030.txt.gz
CAPE
126 139 300 377 345 331 266 187 183 225 248 242 253 237 270 315 337 314 248 167 27 2 2 8 7 42 88 37 0 0 0 0
28 171 202 264 255 263 237 159 163 178 181 162 144 160 225 229 179 194 129 15 0 0 0 0 42 37 26 5 0 0 0 0
20 80 212 173 153 203 189 140 121 118 150 135 37 0 2 31 0 33 9 0 0 0 0 1 0 18 12 0 0 0 0 0
28 123 120 112 110 79 56 47 16 9 2 2 0 0 0 7 0 0 0 0 0 0 3 0 0 0 0 0 0 0 0 0
10 89 118 79 56 19 20 7 0 0 0 0 0 0 0 0 0 0 0 0 0 0 0 0 0 0 0 0 0 0 0 0
108 156 151 30 2 0 0 0 0 2 106 25 17 24 0 0 0 0 0 0 0 0 0 0 0 0 0 0 0 0 0 0
155 166 198 29 21 0 10 190 302 277 79 75 11 0 0 0 0 0 0 0 0 0 0 0 0 0 0 0 0 0 0 0
242 296 11 24 104 156 194 247 237 123 22 1 0 0 0 0 0 0 0 0 0 0 0 0 0 0 0 0 0 0 0 0
288 5 156 152 16 4 1 58 38 12 2 0 0 0 0 0 0 0 0 0 0 0 0 0 0 0 0 0 0 0 0 0
83 300 28 0 0 0 0 0 0 0 0 0 0 0 0 0 0 0 0 0 0 0 0 0 0 0 0 0 0 0 0 0
87 90 0 0 0 0 0 0 0 0 0 0 0 0 0 0 0 0 0 0 0 0 0 0 0 0 0 0 0 0 0 0
188 18 0 0 0 0 0 0 0 0 0 0 0 0 0 0 0 0 0 0 0 0 0 0 0 0 0 0 0 0 0 0
138 12 0 0 0 0 0 0 0 0 0 0 0 0 0 0 0 0 0 0 0 0 0 0 0 0 0 0 0 0 0 0
156 61 0 0 0 0 0 0 0 0 0 0 0 0 0 0 0 0 0 0 0 0 0 0 0 0 0 0 0 0 0 0
194 74 7 0 0 0 0 0 0 0 0 0 0 0 0 0 0 0 0 0 0 0 0 0 0 0 0 0 0 0 0 0
244 138 92 0 0 0 0 0 0 0 0 0 0 0 0 0 0 0 0 0 0 0 0 0 0 0 0 0 0 0 0 0
220 176 121 77 3 0 0 0 0 0 0 0 0 0 0 0 0 0 0 0 0 0 0 0 0 0 0 0 0 0 0 0
235 134 127 38 58 0 0 0 0 0 0 0 0 0 0 0 0 0 0 0 0 0 0 0 0 0 0 0 0 0 0 0
194 0 0 0 0 0 0 0 0 0 0 0 0 0 0 0 0 0 0 0 0 0 0 0 0 0 0 0 0 0 0 0
0 0 0 0 0 0 0 0 0 0 0 0 0 0 0 0 0 0 0 0 0 0 0 0 0 0 0 0 0 0 0 0

GFSFLT2_con_sbcape_033.txt.gz
CAPE
136 79 216 274 259 252 248 298 367 384 370 341 316 306 297 303 307 284 245 176 113 55 17 52 93 29 0 0 0 0 0 0
15 32 171 147 118 214 240 287 328 347 326 277 215 222 263 226 218 203 112 66 41 19 12 62 128 13 0 0 0 0 0 0
0 108 117 148 151 151 142 215 244 237 209 146 49 2 0 5 22 50 5 0 0 3 29 5 0 21 0 0 0 0 0 0
0 8 138 131 130 118 37 38 19 11 2 1 0 0 0 0 14 3 0 0 0 0 0 0 0 0 0 0 0 0 0 0
0 2 125 97 93 41 23 2 0 0 0 0 0 0 0 0 0 0 0 0 0 0 0 0 0 0 0 0 0 0 0 0
8 74 161 66 17 12 4 0 0 0 0 0 0 0 0 0 0 0 0 0 0 0 0 0 0 0 0 0 0 0 0 0
66 162 220 86 12 1 0 0 0 106 87 14 0 0 0 0 0 0 0 0 0 0 0 0 0 0 0 0 0 0 0 0
122 168 193 18 1 0 28 136 156 50 8 0 0 0 0 0 0 0 0 0 0 0 0 0 0 0 0 0 0 0 0 0
178 167 7 5 3 3 75 139 46 5 0 0 0 0 0 0 0 0 0 0 0 0 0 0 0 0 0 0 0 0 0 0
265 167 38 3 0 0 0 0 0 0 0 0 0 0 0 0 0 0 0 0 0 0 0 0 0 0 0 0 0 0 0 0
94 122 7 0 0 0 0 0 0 0 0 0 0 0 0 0 0 0 0 0 0 0 0 0 0 0 0 0 0 0 0 0
133 8 0 0 0 0 0 0 0 0 0 0 0 0 0 0 0 0 0 0 0 0 0 0 0 0 0 0 0 0 0 0
107 0 0 0 0 0 0 0 0 0 0 0 0 0 0 0 0 0 0 0 0 0 0 0 0 0 0 0 0 0 0 0
68 2 0 0 0 0 0 0 0 0 0 0 0 0 0 0 0 0 0 0 0 0 0 0 0 0 0 0 0 0 0 0
148 43 0 0 0 0 0 0 0 0 0 0 0 0 0 0 0 0 0 0 0 0 0 0 0 0 0 0 0 0 0 0
247 99 6 0 0 0 0 0 0 0 0 0 0 0 0 0 0 0 0 0 0 0 0 0 0 0 0 0 0 0 0 0
122 33 10 1 0 0 0 0 0 0 0 0 0 0 0 0 0 0 0 0 0 0 0 0 0 0 0 0 0 0 0 0
16 31 49 14 0 0 0 0 0 0 0 0 0 0 0 0 0 0 0 0 0 0 0 0 0 0 0 0 0 0 0 0
77 83 65 2 0 0 0 0 0 0 0 0 0 0 0 0 0 0 0 0 0 0 0 0 0 0 0 0 0 0 0 0
153 103 2 0 0 0 0 0 0 0 0 0 0 0 0 0 0 0 0 0 0 0 0 0 0 0 0 0 0 0 0 0

GFSFLT2_con_sbcape_036.txt.gz
CAPE
31 17 9 292 322 328 364 401 455 472 472 456 439 353 343 328 296 312 292 217 170 236 229 68 32 51 0 0 0 0 0 0
6 8 22 138 256 280 311 374 392 402 392 293 218 225 237 233 220 282 207 141 142 175 179 95 11 6 9 0 0 0 0 0
18 49 52 137 150 231 291 361 316 281 225 174 48 28 11 0 36 55 33 24 66 149 0 0 0 0 0 0 0 0 0 0
36 63 144 144 154 69 18 89 39 27 22 4 0 0 0 0 0 0 1 13 51 0 0 0 0 0 0 0 0 0 0 0
0 20 127 108 86 6 0 0 0 0 0 0 0 0 0 0 0 0 0 0 0 0 0 0 0 0 0 0 0 0 0 0
0 22 70 60 55 26 4 0 0 0 0 0 0 0 0 0 0 0 0 0 0 0 0 0 0 0 0 0 0 0 0 0
0 0 156 73 33 0 0 0 0 0 0 0 0 0 0 0 0 0 0 0 0 0 0 0 0 0 0 0 0 0 0 0
0 22 168 40 0 0 0 0 0 8 0 0 0 0 0 0 0 0 0 0 0 0 0 0 0 0 0 0 0 0 0 0
22 93 139 30 0 0 0 0 10 0 0 0 0 0 0 0 0 0 0 0 0 0 0 0 0 0 0 0 0 0 0 0
119 179 27 0 0 0 0 0 0 0 0 0 0 0 0 0 0 0 0 0 0 0 0 0 0 0 0 0 0 0 0 0
174 87 0 0 0 0 0 0 0 0 0 0 0 0 0 0 0 0 0 0 0 0 0 0 0 0 0 0 0 0 0 0
99 26 0 0 0 0 0 0 0 0 0 0 0 0 0 0 0 0 0 0 0 0 0 0 0 0 0 0 0 0 0 0
60 6 0 0 0 0 0 0 0 0 0 0 0 0 0 0 0 0 0 0 0 0 0 0 0 0 0 0 0 0 0 0
58 9 0 0 0 0 0 0 0 0 0 0 0 0 0 0 0 0 0 0 0 0 0 0 0 0 0 0 0 0 0 0
102 2 0 0 0 0 0 0 0 0 0 0 0 0 0 0 0 0 0 0 0 0 0 0 0 0 0 0 0 0 0 0
91 4 0 0 0 0 0 0 0 0 0 0 0 0 0 0 0 0 0 0 0 0 0 0 0 0 0 0 0 0 0 0
27 6 0 0 0 0 0 0 0 0 0 0 0 0 0 0 0 0 0 0 0 0 0 0 0 0 0 0 0 0 0 0
22 16 23 0 0 0 0 0 0 0 0 0 0 0 0 0 0 0 0 0 0 0 0 0 0 0 0 0 0 0 0 0
18 27 34 1 0 0 0 0 0 0 0 0 0 0 0 0 0 0 0 0 0 0 0 0 0 0 0 0 0 0 0 0
50 48 37 1 0 0 0 0 0 0 0 0 0 0 0 0 0 0 0 0 0 0 0 0 0 0 0 0 0 0 0 0

GFSFLT2_con_sbcape_039.txt.gz
CAPE
21 31 90 242 266 291 306 375 419 436 480 466 435 305 303 283 281 251 289 313 281 122 114 185 137 50 0 0 0 0 0 0
0 0 5 103 292 271 309 337 374 394 391 298 210 232 258 290 222 203 215 255 342 177 54 79 56 0 0 0 0 0 0 0
0 0 71 135 248 356 340 368 372 300 231 186 82 59 79 35 82 78 92 164 97 114 10 0 0 0 0 0 0 0 0 0
1 30 130 142 154 224 223 249 177 103 38 85 59 105 41 15 9 25 54 38 2 0 0 0 0 0 0 0 0 0 0 0
12 11 132 202 124 101 112 86 56 64 67 45 69 73 66 15 15 16 18 0 0 0 0 0 0 0 0 0 0 0 0 0
18 0 0 45 96 43 22 18 20 36 16 58 105 89 32 16 21 0 0 0 0 0 0 0 0 0 0 0 0 0 0 0
0 0 7 168 164 20 9 16 14 32 9 67 63 88 15 25 0 0 0 0 0 0 0 0 0 0 0 0 0 0 0 0
34 30 104 304 95 28 2 2 0 0 11 98 78 104 16 0 0 0 0 0 0 0 0 0 0 0 0 0 0 0 0 0
0 20 219 310 72 18 0 2 9 54 138 97 2 10 0 0 0 0 0 0 0 0 0 0 0 0 0 0 0 0 0 0
0 21 178 292 33 1 9 40 173 237 182 16 0 0 0 0 0 0 0 0 0 0 0 0 0 0 0 0 0 0 0 0
46 108 246 333 87 21 35 91 239 188 61 8 0 0 0 0 0 0 0 0 0 0 0 0 0 0 0 0 0 0 0 0
161 259 349 252 83 8 57 160 226 116 149 64 0 0 0 0 0 0 0 0 0 0 0 0 0 0 0 0 0 0 0 0
281 332 313 164 64 44 77 233 156 48 5 0 0 0 0 0 0 0 0 0 0 0 0 0 0 0 0 0 0 0 0 0
440 393 272 211 179 75 83 103 10 0 0 0 0 0 0 0 0 0 0 0 0 0 0 0 0 0 0 0 0 0 0 0
396 416 239 194 166 52 0 0 0 0 0 0 0 0 0 0 0 0 0 0 0 0 0 0 0 0 0 0 0 0 0 0
345 373 262 146 56 83 28 113 8 0 0 0 0 0 0 0 0 0 0 0 0 0 0 0 0 0 0 0 0 0 0 0
462 413 355 166 62 109 87 33 0 0 0 0 0 0 0 0 0 0 0 0 0 0 0 0 0 0 0 0 0 0 0 0
566 493 351 142 3 14 7 1 0 0 0 0 0 0 0 0 0 0 0 0 0 0 0 0 0 0 0 0 0 0 0 0
585 507 197 30 1 0 0 0 0 0 0 0 0 0 0 0 0 0 0 0 0 0 0 0 0 0 0 0 0 0 0 0
592 528 387 30 3 3 1 0 0 0 0 0 0 0 0 0 0 0 0 0 0 0 0 0 0 0 0 0 0 0 0 0

GFSFLT2_con_sbcape_042.txt.gz
CAPE
287 286 176 161 275 291 279 344 398 458 471 450 406 348 306 338 360 364 325 220 266 271 252 162 52 0 0 0 0 0 0 0
4 0 0 0 318 296 340 340 355 396 385 271 261 250 243 262 275 361 401 288 235 287 256 88 0 0 0 0 0 0 0 1
7 6 32 22 192 392 390 439 352 283 256 187 64 39 20 26 98 241 316 325 213 147 84 0 0 0 0 0 0 0 0 0
11 4 12 95 288 310 352 262 180 156 122 55 35 77 37 13 20 168 116 84 20 0 0 0 0 0 0 0 0 0 0 0
0 0 0 68 142 352 329 279 281 136 143 75 152 105 71 60 21 43 18 3 0 0 0 0 0 0 0 0 0 0 0 0
1 0 2 37 96 173 189 121 99 84 90 112 151 120 92 94 138 210 88 21 0 0 0 0 0 0 0 0 0 0 0 0
49 48 21 0 25 122 153 185 100 44 94 108 89 49 93 153 136 93 34 0 0 0 0 0 0 0 0 0 0 0 0 0
10 3 31 102 116 141 175 173 72 110 76 179 238 102 172 314 177 50 0 0 0 0 0 0 0 0 0 0 0 0 0 0
6 44 109 153 274 157 39 56 18 8 68 485 497 443 361 223 96 7 0 0 0 0 0 0 0 0 0 0 0 0 0 0
92 33 157 337 355 166 0 24 18 29 354 537 577 484 334 164 32 0 0 0 0 0 0 0 0 0 0 0 0 0 0 0
124 106 145 555 619 189 87 48 107 178 565 567 477 225 90 59 15 0 0 0 0 0 0 0 0 0 0 0 0 0 0 0
60 132 469 583 616 325 57 9 92 516 831 697 468 202 31 37 0 0 0 0 0 0 0 0 0 0 0 0 0 0 0 0
280 400 509 602 743 466 117 57 203 677 745 834 411 325 79 21 0 0 0 0 0 0 0 0 0 0 0 0 0 0 0 0
492 398 498 754 814 694 174 310 196 416 629 731 573 394 14 0 0 0 0 0 0 0 0 0 0 0 0 0 0 0 0 0
521 573 806 810 768 672 283 473 634 704 588 342 327 102 0 0 0 0 0 0 0 0 0 0 0 0 0 0 0 0 0 0
498 656 937 909 912 768 476 342 358 507 480 139 53 2 0 0 0 0 0 0 0 0 0 0 0 0 0 0 0 0 0 0
611 667 1100 986 945 916 853 718 625 685 370 21 0 0 0 0 0 0 0 0 0 0 0 0 0 0 0 0 0 0 0 0
781 781 893 1096 1095 1025 1110 1200 1111 481 128 0 0 0 0 0 0 0 0 0 0 0 0 0 0 0 0 0 0 0 0 0
1202 996 763 901 868 423 700 834 977 257 131 6 0 0 0 0 0 0 0 0 0 0 0 0 0 0 0 0 0 0 0 0
1520 1234 994 925 626 56 319 359 295 116 286 14 0 0 0 0 0 0 0 0 0 0 0 0 0 0 0 0 0 0 2 0

GFSFLT2_con_sbcape_045.txt.gz
CAPE
295 267 547 282 215 235 239 425 546 581 612 664 584 443 400 370 305 356 437 321 281 251 211 143 0 2 0 0 0 15 6 8
2 2 189 343 218 224 294 385 451 490 409 312 281 286 338 355 292 278 312 321 333 237 159 47 0 0 0 0 0 0 0 8
0 0 0 21 208 371 441 480 379 351 337 257 137 87 62 51 219 353 301 304 302 162 22 0 0 0 0 0 0 0 0 0
3 0 0 0 1 156 282 366 292 246 193 190 130 164 136 90 169 254 215 147 144 59 0 0 0 0 0 0 0 0 0 0
5 0 0 26 48 134 302 335 320 239 242 246 309 283 220 95 85 18 2 0 0 0 0 0 0 0 0 0 0 0 0 0
1 12 22 17 13 85 244 255 265 243 287 455 388 259 421 280 116 145 67 31 2 0 0 0 0 0 0 0 0 0 0 0
0 0 10 10 23 109 155 205 152 171 271 297 383 354 481 290 278 298 204 127 57 2 0 0 0 0 0 0 0 0 0 0
3 29 23 17 24 76 207 279 160 402 326 407 506 272 398 230 301 262 173 101 35 1 0 0 0 0 0 0 0 0 0 0
25 3 4 0 17 25 81 335 276 329 311 591 344 452 605 453 398 249 147 73 30 5 1 0 0 0 0 0 0 0 0 0
0 0 0 119 153 137 140 279 255 133 135 335 614 338 415 512 401 301 145 61 32 3 1 0 0 0 0 0 0 0 0 0
3 44 71 148 176 251 163 200 105 30 179 249 620 707 694 546 439 305 151 51 25 10 0 0 0 0 0 0 0 0 0 0
0 86 145 390 547 236 100 8 115 54 107 352 608 685 542 517 411 266 121 41 18 1 0 0 0 0 0 0 0 0 0 0
155 145 146 426 485 214 50 2 4 59 256 401 620 692 502 459 394 268 138 52 4 0 0 0 0 0 0 0 0 0 0 0
167 120 167 539 592 505 119 28 0 62 254 658 740 762 617 440 478 221 104 10 3 0 0 0 0 0 0 0 1 0 0 0
263 307 476 529 506 561 387 61 72 51 292 503 791 760 705 478 405 144 32 10 2 0 0 0 0 0 0 0 0 0 0 0
605 574 574 552 612 791 466 121 244 478 682 626 640 837 622 360 148 46 5 1 2 0 0 0 0 0 0 0 0 0 0 0
746 662 635 753 880 746 1042 485 398 545 718 771 825 587 399 156 26 5 2 1 1 0 0 0 0 0 0 0 0 0 0 0
1318 719 659 774 978 940 1061 1044 892 1059 1063 734 498 371 190 59 2 1 1 0 0 0 0 0 0 0 0 0 0 0 1 6
1115 756 597 920 1331 1126 1254 1337 1316 617 700 636 346 249 37 7 3 0 0 0 0 0 0 0 0 0 0 0 0 0 0 0
1083 943 994 857 1191 1006 1134 1346 1196 759 323 113 38 14 0 2 2 0 0 0 0 0 0 0 0 0 0 0 2 0 6 4

GFSFLT2_con_sbcape_048.txt.gz
CAPE
608 317 330 264 397 371 461 630 667 681 640 618 513 345 366 600 777 710 442 320 275 227 183 99 35 0 0 0 0 17 12 0
2 5 7 53 196 404 458 499 536 557 406 274 231 262 299 344 398 359 337 297 255 214 167 73 0 0 0 0 0 0 0 0
2 1 7 3 95 443 522 542 416 327 274 221 101 35 20 102 260 346 358 295 207 135 29 0 0 0 0 0 0 0 0 0
4 0 0 0 3 199 340 373 282 262 169 134 44 45 114 114 197 231 258 228 137 14 0 0 0 0 0 0 0 0 0 0
0 1 2 5 9 21 108 185 235 277 243 240 251 135 136 153 106 5 7 11 0 0 0 0 0 0 0 0 0 0 0 0
0 0 0 0 0 30 96 194 240 214 227 328 333 218 210 154 75 74 0 0 0 0 0 0 0 0 0 0 0 0 0 0
15 2 2 1 10 35 71 217 205 160 133 339 316 285 282 178 169 115 40 21 0 23 0 0 0 0 0 0 0 0 0 0
14 6 25 20 0 0 17 112 180 97 94 363 310 355 289 356 460 416 325 150 106 6 0 0 0 0 0 0 0 0 0 0
9 7 5 4 0 23 49 143 252 328 300 330 381 475 364 552 369 434 178 156 112 41 0 0 0 0 0 0 0 0 0 0
2 4 0 0 0 27 60 93 243 268 225 347 396 478 393 408 520 366 262 108 51 5 0 0 0 0 0 0 0 0 0 0
0 0 0 0 5 0 0 18 146 159 147 240 425 436 518 559 500 418 205 80 38 11 0 3 0 0 0 0 0 0 0 0
0 0 0 0 62 0 0 28 88 71 60 110 397 531 572 522 417 258 76 100 39 8 1 0 0 0 0 0 0 0 0 0
0 0 0 15 35 9 33 5 37 60 43 75 465 462 551 507 368 271 96 104 25 19 0 0 0 0 0 0 0 0 0 0
0 0 0 22 30 48 80 1 0 15 60 197 614 456 459 386 374 227 93 119 46 0 0 0 0 0 0 0 0 0 0 0
0 0 0 5 162 282 245 31 2 0 34 537 695 675 547 452 354 391 148 116 8 0 0 0 0 0 0 0 0 0 0 0
145 85 49 9 363 344 397 103 31 0 6 380 566 611 540 529 496 407 168 24 0 0 0 0 0 0 0 0 0 0 0 0
256 175 186 285 346 470 315 292 34 135 32 372 450 548 600 485 336 156 69 6 0 0 0 0 0 0 0 0 0 0 0 0
428 403 348 476 408 290 575 474 399 429 633 490 559 443 499 370 231 63 2 0 0 0 0 0 0 0 0 0 0 0 0 2
696 736 573 596 789 558 618 685 778 662 726 398 253 118 131 106 123 5 0 0 0 0 0 0 0 0 0 0 0 0 0 0
839 837 682 673 745 1035 697 621 846 818 630 372 110 102 23 23 3 0 0 0 0 0 0 0 0 0 0 0 0 0 0 0